This is the latest recevied weather packets stored in our database for station/object KM4KMS. If no packets are shown the sender has not sent any weather packets the latest 10 day(s).
| Time | Temp. | Humidity | Pressure | Rain* | Wind** | Luminosity | Snow |
|---|---|---|---|---|---|---|---|
| 1777589934 | 15.56° C | 44% | 1014.1 hPa | 0 mm | - | 143 W/m² | - |
| 1777589630 | 15.56° C | 45% | 1013.9 hPa | 0 mm | - | 161 W/m² | - |
| 1777589327 | 15.56° C | 41% | 1014.3 hPa | 0 mm | - | 185 W/m² | - |
| 1777589024 | 15.56° C | 43% | 1014 hPa | 0 mm | - | 194 W/m² | - |
| 1777588721 | 15.56° C | 46% | 1014.1 hPa | 0 mm | - | 204 W/m² | - |
| 1777588416 | 15.56° C | 45% | 1014.2 hPa | 0 mm | - | 225 W/m² | - |
| 1777588112 | 16.11° C | 42% | 1014.3 hPa | 0 mm | - | 221 W/m² | - |
| 1777587808 | 16.11° C | 43% | 1014.3 hPa | 0 mm | - | 249 W/m² | - |
| 1777587507 | 16.11° C | 43% | 1014.1 hPa | 0 mm | - | 270 W/m² | - |
| 1777587204 | 15.56° C | 44% | 1014 hPa | 0 mm | - | 279 W/m² | - |
| 1777586899 | 16.11° C | 43% | 1014.1 hPa | 0 mm | - | 294 W/m² | - |
| 1777586595 | 15.56° C | 45% | 1014 hPa | 0 mm | - | 293 W/m² | - |
| 1777586291 | 15.56° C | 45% | 1014.3 hPa | 0 mm | - | 313 W/m² | - |
| 1777585989 | 16.11° C | 44% | 1014.2 hPa | 0 mm | - | 340 W/m² | - |
| 1777585684 | 16.11° C | 43% | 1014.2 hPa | 0 mm | - | 360 W/m² | - |
| 1777585378 | 16.67° C | 44% | 1014.1 hPa | 0 mm | - | 371 W/m² | - |
| 1777585073 | 16.11° C | 40% | 1014 hPa | 0 mm | - | 358 W/m² | - |
| 1777584770 | 16.11° C | 42% | 1014.2 hPa | 0 mm | - | 386 W/m² | - |
| 1777584468 | 16.11° C | 41% | 1014.1 hPa | 0 mm | - | 424 W/m² | - |
| 1777584165 | 15.56° C | 46% | 1014.3 hPa | 0 mm | - | 409 W/m² | - |
| 1777583864 | 16.11° C | 46% | 1014.4 hPa | 0 mm | - | 406 W/m² | - |
| 1777583560 | 16.11° C | 42% | 1014.7 hPa | 0 mm | - | 427 W/m² | - |
| 1777583259 | 16.11° C | 42% | 1014.6 hPa | 0 mm | - | 433 W/m² | - |
| 1777582958 | 16.67° C | 43% | 1014.2 hPa | 0 mm | - | 419 W/m² | - |
| 1777582657 | 16.11° C | 46% | 1014.4 hPa | 0 mm | - | 426 W/m² | - |
* Rain latest hour (hover to see other rain measurements)
** Current wind speed in m/s (hover to see current wind gust speed)